Regional Weather Roundup
Issued by NWS

Home | Current Version | Previous Version | Text Only | Print | Product List | Glossary On
Versions: 1 2 3 4 5 6 7 8 9 10 11 12 13 14 15 16 17 18 19 20 21 22 23 24 25 26 27 28 29 30 31 32 33 34 35 36 37 38 39 40 41 42 43 44 45 46 47 48 49 50
000
ASUS43 KLOT 091912
RWRIL

ILLINOIS REGIONAL WEATHER ROUNDUP
NATIONAL WEATHER SERVICE CHICAGO/ROMEOVILLE IL
100 PM CST FRI DEC 09 2016

NOTE: "FAIR" INDICATES FEW OR NO CLOUDS BELOW 12,000 FEET WITH NO
SIGNIFICANT WEATHER AND/OR OBSTRUCTIONS TO VISIBILITY.

* THESE STATIONS ARE NOT UNDER NWS QUALITY CONTROL. THEY ALSO MAY NOT
  REPORT WEATHER SUCH AS PRECIPITATION OR FOG.

ILZ001-002-007-009-015-016-024-092000-
NORTHWEST ILLINOIS

CITY           SKY/WX    TMP DP  RH WIND       PRES   REMARKS
MOLINE         MOSUNNY   23  13  65 NW9       30.56F WCI  13
STERLING*      PTSUNNY   24  16  71 NW9       30.54F WCI  14
SAVANNA*       SUNNY     25  14  61 W7        30.53F WCI  18
$$

ILZ003-004-008-010-011-017-018-092000-
NORTH CENTRAL ILLINOIS

CITY           SKY/WX    TMP DP  RH WIND       PRES   REMARKS
ROCKFORD       PTSUNNY   24  13  62 W8        30.52F WCI  15
FREEPORT*      MOSUNNY   22  12  66 W9        30.53F WCI  12
ROCHELLE*      SUNNY     23  14  68 W10       30.52F WCI  12
DE KALB*       CLOUDY    22  14  69 W13       30.50F WCI  10
$$

ILZ005-006-012>014-019>023-092000-
NORTHEAST ILLINOIS

CITY           SKY/WX    TMP DP  RH WIND       PRES   REMARKS
CHICAGO-OHARE  FLURRIES  25  13  60 W12       30.49F WCI  14
CHICAGO-MIDWAY FLURRIES  26  13  57 NW14      30.51F WCI  14
AURORA         CLOUDY    24  15  68 W12       30.52F WCI  13
LANSING*       CLOUDY    25  17  71 W8        30.51F WCI  17
JOLIET*        CLOUDY    26  15  62 W9        30.53S WCI  17
WAUKEGAN       PTSUNNY   27  11  51 W8        30.47F WCI  19
DUPAGE AIRPORT CLOUDY    24  13  62 W12       30.50F WCI  13
KANKAKEE*      CLOUDY    26  15  62 W8G20     30.54S WCI  17
WHEELING       CLOUDY    25  13  60 W9        30.51F WCI  15
MORRIS*        CLOUDY    25  15  66 NW8       30.52F WCI  16
ROMEOVILLE*    CLOUDY    24  17  75 NW8       30.52S WCI  14
NORTHERLY ISL    N/A     26  14  60 W8          N/A  WCI  18
$$

LMZ740>746-092000-
SOUTHERN LAKE MICHIGAN

STATION/POSITION SKY/WX   TEMP    WIND        PRES    VSBY  WAVE
                          AIR SEA DIR/SP/G                  HT/PER
                          (F)     (DEG/KT/KT) (MB)    (MI)  (FT/S)
HARRISON CRIB              26     290/ 15/ 18   N/A
BURNHAM HARBOR             26     240/  7/ 12   N/A
CALUMET HARBOR             26     280/  5/  9 1032.0F
BURNS HARBOR               27     280/ 12/ 17 1032.8F
$$

ILZ025>027-034>036-040-047-049-050-058-095>099-092000-
WEST-CENTRAL ILLINOIS

CITY           SKY/WX    TMP DP  RH WIND       PRES   REMARKS
QUINCY         PTSUNNY   22  13  68 NW7       30.58F WCI  13
GALESBURG*     CLOUDY    23  14  69 W8        30.56F WCI  14
MACOMB*        CLOUDY    22  14  69 NW10      30.60F WCI  12
JACKSONVILLE*  CLOUDY    24  13  63 W8        30.59F WCI  15
PITTSFIELD*    PTSUNNY   23  14  67 CALM      30.59F
$$

ILZ028>032-037-038-041>044-048-051>054-059>061-092000-
CENTRAL ILLINOIS

CITY           SKY/WX    TMP DP  RH WIND       PRES   REMARKS
PONTIAC        CLOUDY    26  15  62 W8        30.55F WCI  18
BLOOMINGTON    CLOUDY    24  14  65 NW7       30.54S WCI  16
DECATUR        CLOUDY    23  14  68 W9        30.57S WCI  13
PEORIA         PTSUNNY   25  12  58 W7        30.56F WCI  17
LACON*         FLURRIES  25  14  65 W6        30.54F WCI  18
LINCOLN*       CLOUDY    24  15  66 NW5       30.57F WCI  18
SPRINGFIELD    CLOUDY    25  14  63 W7        30.58F WCI  17
TAYLORVILLE    CLOUDY    24  15  68 CALM      30.59S
$$

ILZ033-039-045-046-055>057-062-063-092000-
EAST-CENTRAL ILLINOIS

CITY           SKY/WX    TMP DP  RH WIND       PRES   REMARKS
CHAMPAIGN      FLURRIES  26  13  57 W9        30.55S WCI  17
RANTOUL*       CLOUDY    27  16  63 W9        30.54S WCI  18
MATTOON        CLOUDY    25  15  66 W8        30.56R WCI  16
PARIS*         CLOUDY    27  16  64 NW7       30.56S WCI  19
$$

ILZ079-100>102-092000-
SOUTHWEST ILLINOIS

CITY           SKY/WX    TMP DP  RH WIND       PRES   REMARKS
ALTON          CLOUDY    25  14  63 NW8       30.60F WCI  16
BELLEVILLE     MOSUNNY   30  13  50 W9        30.59F WCI  22
CAHOKIA*       SUNNY     28  11  48 VRB3      30.61F
SPARTA*        MOSUNNY   28  13  54 NW7       30.62F WCI  21
$$

ILZ064>066-069>071-074>076-080>082-084>086-088>090-092>094-092000-
SOUTH-CENTRAL ILLINOIS

CITY           SKY/WX    TMP DP  RH WIND       PRES   REMARKS
CARBONDALE     MOSUNNY   30  14  51 W6        30.61F WCI  24
CAIRO*         SUNNY     30  16  54 SW5       30.63F WCI  26
EFFINGHAM*     CLOUDY    26  17  71 W8        30.60S WCI  17
MARION         MOSUNNY   30  16  55 NW9       30.61F WCI  22
CENTRALIA*     CLOUDY    28  17  62 W5        30.59F WCI  23
SALEM*         CLOUDY    28  15  57 W8        30.60S WCI  20
METROPOLIS*    SUNNY     32  16  51 CALM      30.62F
$$

ILZ067-068-072-073-078-083-087-091-092000-
SOUTHEAST ILLINOIS

CITY           SKY/WX    TMP DP  RH WIND       PRES   REMARKS
LAWRENCEVILLE  CLOUDY    26  15  63 W5        30.59F WCI  20
FLORA*         CLOUDY    29  15  55 W5        30.60S WCI  24
FAIRFIELD*     PTSUNNY   28  14  57 W3        30.59F
HARRISBURG*    MOSUNNY   29  17  59 W7        30.60F WCI  22
ROBINSON*      FLURRIES  25  16  70 NW6       30.59F WCI  18
CARMI*         CLOUDY    30  17  58 W9        30.60S WCI  22
$$

ABBREVIATIONS USED IN REMARKS
   TC - TEMPERATURE IN CELSIUS
  WCI - WIND CHILL INDEX
   HX - HEAT INDEX
  VSB - VISIBILITY
$$





USA.gov is the U.S. government's official web portal to all federal, state and local government web resources and services.